Regional Weather Roundup
Issued by NWS Kansas City/Pleasant Hill, MO

Home | Current Version | Previous Version | Text Only | Print | Product List | Glossary On
Versions: 1 2 3 4 5 6 7 8 9 10 11 12 13 14 15 16 17 18 19 20 21 22 23 24 25 26 27 28
000
ASUS43 KEAX 291610
RWREAX

WEATHER ROUNDUP FOR EASTERN KANSAS AND NORTHWEST MISSOURI
NATIONAL WEATHER SERVICE KANSAS CITY/PLEASANT HILL MO
1100 AM CDT WED MAR 29 2017

KSZ040-057-103>105-MOZ028-029-037-043-291700-
...KANSAS CITY METROPOLITAN AREA...

CITY           SKY/WX    TMP DP  RH WIND       PRES   REMARKS
K.C. INTL      LGT RAIN  49  47  93 E22G30    29.79S
K.C. DOWNTOWN  LGT RAIN  50  48  93 E18G24    29.78F
LEES SUMMIT    LGT RAIN  50  49  96 E21G31    29.78F
OLATHE - IXD   CLOUDY    51  49  92 E21G30    29.73F
OLATHE - OJC   CLOUDY    50  50 100 E14G25    29.74F
LAWRENCE       CLOUDY    51  50  96 E15       29.75S

$$

MOZ001>008-011>017-020>025-030>033-038>040-044>046-053-054-291700-
...NORTHERN AND CENTRAL MISSOURI...

CITY           SKY/WX    TMP DP  RH WIND       PRES   REMARKS
ST. JOSEPH     HVY RAIN  48  48 100 E13       29.84R FOG
MOSBY          LGT RAIN  48  46  93 E17G26    29.82F
WARRENSBURG    LGT RAIN  50  50 100 E16       29.83R
WHITEMAN AFB   LGT RAIN  50  50 100 E16G26    29.83R FOG
CLINTON        CLOUDY    55  52  88 E14G21    29.81F
SEDALIA          N/A     52  32  46 E15       29.88S
WARSAW         NOT AVBL
CHILLICOTHE      N/A     48  45  89 E12G25    29.90F
KIRKSVILLE     CLOUDY    44  44 100 E18G26    29.97F

$$

MOZ041-047>049-056>058-063>065-088>090-097-291700-
...EASTERN AND SOUTHERN MISSOURI...

CITY           SKY/WX    TMP DP  RH WIND       PRES   REMARKS
ST. LOUIS INTL CLOUDY    54  47  77 E15       30.04R
SPIRIT OF STL  CLOUDY    53  49  86 NE8       30.04R
COLUMBIA       CLOUDY    50  48  93 E17G25    29.93F
JEFFERSON CITY CLOUDY    54  49  83 E10       29.92F
ROLLA          CLOUDY    59  53  80 E20G26    29.90F
OSAGE BEACH    CLOUDY    58  53  84 E9        29.88F
SPRINGFIELD    LGT RAIN  58  54  86 SE23G30   29.79F
BRANSON        LGT RAIN  55  55 100 E16G23    29.82F
JOPLIN         CLOUDY    62  57  83 SE16G26   29.68R
WEST PLAINS    CLOUDY    60  55  83 SE15      29.93R

$$

IAZ060-094-KSZ022-034>040-054-083-096-NEZ052-066-093-291700-
...KANSAS...SOUTHEAST NEBRASKA AND IOWA...

CITY           SKY/WX    TMP DP  RH WIND       PRES   REMARKS
TOPEKA         CLOUDY    50  50 100 E20       29.74F
MANHATTAN      RAIN      49  49 100 NE20G26   29.74R FOG
EMPORIA        CLOUDY    52  52 100 E17       29.65S FOG
CHANUTE        CLOUDY    62  57  83 SE15G24   29.63F
WICHITA        LGT RAIN  54  52  93 NE12      29.62R
OMAHA          LGT RAIN  45  40  82 E22       29.98F
LINCOLN        LGT RAIN  46  44  93 NE18      29.94F
FALLS CITY     LGT RAIN  47  46  97 NE16G23   29.84F FOG
LAMONI         CLOUDY    43  41  93 E16G24    29.94F
DES MOINES     LGT RAIN  43  40  89 E13       30.05F FOG

$$





USA.gov is the U.S. government's official web portal to all federal, state and local government web resources and services.